This demonstration page uses our WeatherBlox Daily Observations layout. Learn more.

Left ArrowRight Arrow

39.51506, -84.39828

Hourly Observations for June 16, 2022

Temp ( °F °C ) Dew Point ( °F °C ) Humidity (%) Winds ( mph kmh ) Pressure ( in mb ) Visibility ( mi km ) Precip ( " mm )
12:15 am 00:15 undefined N/A N/A N/A undefined N/A N/A N/A 0.00 0.00
12:35 am 00:35 undefined N/A N/A N/A undefined N/A N/A N/A 0.00 0.00
12:55 am 00:55 undefined N/A N/A N/A undefined N/A N/A N/A 0.00 0.00
1:15 am 01:15 undefined N/A N/A N/A undefined N/A N/A N/A 0.00 0.00
1:35 am 01:35 undefined N/A N/A N/A undefined N/A N/A N/A 0.00 0.00
1:55 am 01:55 undefined N/A N/A N/A undefined N/A N/A N/A 0.00 0.00
2:15 am 02:15 undefined N/A N/A N/A undefined N/A N/A N/A 0.00 0.00
2:35 am 02:35 undefined N/A N/A N/A undefined N/A N/A N/A 0.00 0.00
2:55 am 02:55 undefined N/A N/A N/A undefined N/A N/A N/A 0.00 0.00
3:15 am 03:15 undefined N/A N/A N/A undefined N/A N/A N/A 0.00 0.00
3:35 am 03:35 undefined N/A N/A N/A undefined N/A N/A N/A 0.00 0.00
3:55 am 03:55 undefined N/A N/A N/A undefined N/A N/A N/A 0.00 0.00
4:15 am 04:15 undefined N/A N/A N/A undefined N/A N/A N/A 0.00 0.00
4:35 am 04:35 undefined N/A N/A N/A undefined N/A N/A N/A 0.00 0.00
4:55 am 04:55 undefined N/A N/A N/A undefined N/A N/A N/A 0.00 0.00
5:15 am 05:15 undefined N/A N/A N/A undefined N/A N/A N/A 0.00 0.00
5:35 am 05:35 undefined N/A N/A N/A undefined N/A N/A N/A 0.00 0.00
5:55 am 05:55 undefined N/A N/A N/A undefined N/A N/A N/A 0.00 0.00
6:15 am 06:15 undefined N/A N/A N/A undefined N/A N/A N/A 0.00 0.00
6:35 am 06:35 undefined N/A N/A N/A undefined N/A N/A N/A 0.00 0.00
6:55 am 06:55 undefined N/A N/A N/A undefined N/A N/A N/A 0.00 0.00
7:15 am 07:15 undefined N/A N/A N/A undefined N/A N/A N/A 0.00 0.00
7:35 am 07:35 undefined N/A N/A N/A undefined N/A N/A N/A 0.00 0.00
7:55 am 07:55 undefined N/A N/A N/A undefined N/A N/A N/A 0.00 0.00
8:15 am 08:15 undefined N/A N/A N/A undefined N/A N/A N/A 0.00 0.00
8:35 am 08:35 undefined N/A N/A N/A undefined N/A N/A N/A 0.00 0.00
8:55 am 08:55 undefined N/A N/A N/A undefined N/A N/A N/A 0.00 0.00
9:15 am 09:15 undefined N/A N/A N/A undefined N/A N/A N/A 0.00 0.00
9:35 am 09:35 undefined N/A N/A N/A undefined N/A N/A N/A 0.00 0.00
9:55 am 09:55 undefined N/A N/A N/A undefined N/A N/A N/A 0.00 0.00
10:15 am 10:15 undefined N/A N/A N/A undefined N/A N/A N/A 0.00 0.00
10:35 am 10:35 undefined N/A N/A N/A undefined N/A N/A N/A 0.00 0.00
10:55 am 10:55 undefined N/A N/A N/A undefined N/A N/A N/A 0.00 0.00
11:15 am 11:15 undefined N/A N/A N/A undefined N/A N/A N/A 0.00 0.00
11:35 am 11:35 undefined N/A N/A N/A undefined N/A N/A N/A 0.00 0.00
11:55 am 11:55 undefined N/A N/A N/A undefined N/A N/A N/A 0.00 0.00
12:15 pm 12:15 undefined N/A N/A N/A undefined N/A N/A N/A 0.00 0.00
12:35 pm 12:35 undefined N/A N/A N/A undefined N/A N/A N/A 0.00 0.00
12:55 pm 12:55 undefined N/A N/A N/A undefined N/A N/A N/A 0.00 0.00
1:15 pm 13:15 undefined N/A N/A N/A undefined N/A N/A N/A 0.00 0.00
1:35 pm 13:35 undefined N/A N/A N/A undefined N/A N/A N/A 0.00 0.00
1:55 pm 13:55 undefined N/A N/A N/A undefined N/A N/A N/A 0.00 0.00
2:15 pm 14:15 undefined N/A N/A N/A undefined N/A N/A N/A 0.00 0.00
2:35 pm 14:35 undefined N/A N/A N/A undefined N/A N/A N/A 0.00 0.00
2:55 pm 14:55 undefined N/A N/A N/A undefined N/A N/A N/A 0.00 0.00
3:15 pm 15:15 undefined N/A N/A N/A undefined N/A N/A N/A 0.00 0.00
3:35 pm 15:35 undefined N/A N/A N/A undefined N/A N/A N/A 0.00 0.00
3:55 pm 15:55 undefined N/A N/A N/A undefined N/A N/A N/A 0.00 0.00
4:15 pm 16:15 undefined N/A N/A N/A undefined N/A N/A N/A 0.00 0.00
4:35 pm 16:35 undefined N/A N/A N/A SW 17 28 N/A N/A 0.00 0.00
4:55 pm 16:55 Mostly Cloudy 94 34.6 74 23.1 51 51 SW 12 19 29.94 1014 10 16 0.00 0.00
5:15 pm 17:15 Partly Cloudy 93 33.8 73 22.5 52 52 WSW 17 28 29.93 1014 10 16 0.00 0.00
5:35 pm 17:35 Partly Cloudy 93 34.1 73 22.7 51 51 SW 14 22 29.92 1013 10 16 0.00 0.00
5:55 pm 17:55 Partly Cloudy 92 33.3 73 22.7 54 54 SW 13 20 29.92 1013 10 16 0.00 0.00
6:15 pm 18:15 Mostly Cloudy 92 33.1 73 22.8 55 55 SW 15 24 29.92 1013 10 16 0.00 0.00
6:35 pm 18:35 Partly Cloudy 91 33 73 22.9 55 55 WSW 13 20 29.92 1013 10 16 0.00 0.00
6:55 pm 18:55 Partly Cloudy 91 32.5 73 23 57 57 WSW 14 22 29.93 1013 10 16 0.00 0.00
7:15 pm 19:15 Partly Cloudy 91 32.5 74 23.1 58 58 SW 10 17 29.92 1013 10 16 0.00 0.00
7:35 pm 19:35 Partly Cloudy 90 32.1 74 23.3 60 60 SW 14 22 29.92 1013 10 16 0.00 0.00
7:55 pm 19:55 Partly Cloudy 89 31.6 75 23.7 63 63 SW 12 19 29.92 1013 10 16 0.00 0.00
8:15 pm 20:15 Partly Cloudy 88 31.1 75 23.8 65 65 WSW 8 13 29.92 1013 10 16 0.00 0.00
8:35 pm 20:35 Sunny 87 30.5 75 23.9 68 68 SW 8 13 29.92 1013 10 16 0.00 0.00
8:55 pm 20:55 Sunny 85 29.3 76 24.2 74 74 SW 7 11 29.92 1013 10 16 0.00 0.00
9:15 pm 21:15 Clear 83 28.4 76 24.7 80 80 SSW 8 13 29.93 1013 10 16 0.00 0.00
9:35 pm 21:35 Clear 82 27.8 77 24.8 84 84 SW 7 11 29.93 1013 10 16 0.00 0.00
9:55 pm 21:55 Clear 82 27.7 77 24.8 84 84 SW 7 11 29.94 1014 10 16 0.00 0.00
10:15 pm 22:15 Clear 81 27.1 77 24.8 87 87 SSW 8 13 29.94 1014 10 16 0.00 0.00
10:35 pm 22:35 Clear 80 26.8 77 24.8 89 89 SSW 7 11 29.95 1014 10 16 0.00 0.00
10:55 pm 22:55 Clear 80 26.4 77 24.8 91 91 SW 7 11 29.96 1015 10 16 0.00 0.00
11:15 pm 23:15 Clear 79 26.1 77 24.8 93 93 SW 7 11 29.96 1015 10 16 0.00 0.00
11:35 pm 23:35 Clear 80 26.7 77 24.8 89 89 SSW 7 11 29.97 1015 10 16 0.00 0.00
11:55 pm 23:55 Clear 80 26.5 77 24.8 90 90 SSW 7 11 29.97 1015 10 16 0.00 0.00

Powered by AerisWeather